Regional Weather Roundup
Issued by NWS Bismarck, ND

Home | Current Version | Previous Version | Text Only | Print | Product List | Glossary On
Versions: 1 2 3 4 5 6 7 8 9 10 11 12 13 14 15 16 17 18 19 20 21 22 23 24 25 26 27 28 29 30 31 32 33 34 35 36 37 38 39 40 41 42 43 44 45 46 47 48 49 50
000
ASUS43 KBIS 211520
RWRBIS

NWR BROADCAST TEXT
NATIONAL WEATHER SERVICE BISMARCK ND
1000 AM CDT TUE OCT 21 2014

NOTE: "FAIR" INDICATES FEW OR NO CLOUDS BELOW 12,000 FEET WITH NO
SIGNIFICANT WEATHER AND/OR OBSTRUCTIONS TO VISIBILITY.


CITY           SKY/WX    TMP DP  RH WIND       PRES   REMARKS
WILLISTON      SUNNY     51  39  63 CALM      29.74S
MINOT          SUNNY     52  38  58 SE7       29.79F
MINOT AFB      SUNNY     46  41  83 SE9       29.78F
BISMARCK       SUNNY     55  39  54 SE9       29.83S
DICKINSON      SUNNY     47  39  74 SE12      29.74F
GARRISON         N/A     51  39  63 SE8       29.79F
HETTINGER ARPT SUNNY     48  40  73 SE6       29.78F
JAMESTOWN      SUNNY     52  39  61 SE17      29.90F
BEACH            N/A     46  45  93 S8        29.73F
CARRINGTON       N/A     54  39  58 SE26G32   29.87F
CROSBY         FAIR      50  37  62 S7        29.74F
HARVEY         FAIR      55  39  54 S16G22    29.84F
HAZEN          FAIR      52  36  54 SE3       29.79F
LINTON         FAIR      52  39  62 SE20G26   29.83F
MANDAN         FAIR      52  37  58 SE9       29.82F
OAKES            N/A     54  45  71 SE12      29.93F
RUGBY          FAIR      50  39  66 SE15G21   29.84F
STANLEY        FAIR      48  39  71 S8        29.77S
TIOGA          FAIR      50  41  71 SE5       29.78F
$$

CITY           SKY/WX    TMP DP  RH WIND       PRES   REMARKS
GRAND FORKS    SUNNY     45  40  82 SE18      30.00F
GRAND FORKS AF SUNNY     44  43  95 S14G23    29.99F
DEVILS LAKE    SUNNY     52  37  58 SE16      29.89S
FARGO          SUNNY     49  40  71 SE15G26   30.02S
CANDO          FAIR      48  41  76 SE12G18   29.90S
CAVALIER       FAIR      45  39  81 S15G23    29.98F
GRAFTON        FAIR      45  41  87 S17       29.99F
GWINNER        SUNNY     50  39  66 SE17      29.97F
LANGDON        FAIR      48  37  66 S15G23    29.93S
ROLLA          FAIR      45  41  87 S7        29.90S
WALHALLA         N/A     41  41 100 S14G20    29.96F
$$

CITY           SKY/WX    TMP DP  RH WIND       PRES   REMARKS
ABERDEEN       SUNNY     59  39  47 S16       29.93F
MOBRIDGE       SUNNY     59  43  55 S13       29.82R
BUFFALO          N/A     53  43  68 S7        29.70F
RAPID CITY     SUNNY     56  42  59 E5        29.84S
GLASGOW        MOSUNNY   50  40  68 E15       29.66S
SIDNEY         SUNNY     48  41  76 CALM      29.74S
WOLF POINT     SUNNY     43  39  86 E6        29.70F
GLENDIVE       SUNNY     46  41  81 CALM      29.73S
MILES CITY     SUNNY     44  37  76 SE5       29.71S
BAKER          SUNNY     49  42  77 SE7       29.74F
$$

CITY           SKY/WX    TMP DP  RH WIND       PRES   REMARKS
BILLINGS       MOSUNNY   54  29  38 SW15      29.73S
GREAT FALLS    LGT RAIN  50  38  63 N3        29.66R
REGINA         SUNNY     45  41  87 SE13      29.69S
ESTEVAN        MOSUNNY   45  37  76 E9        29.75S
$$



USA.gov is the U.S. government's official web portal to all federal, state and local government web resources and services.